Tracking 27401 objects as of 3-Jun-2023
HD Live streaming from Space Station
objects crossing your sky now

SL-12 R/B(2)

Track SL-12 R/B(2) now!


NORAD ID: 20502
Int'l Code: 1990-016D
Perigee: 35,693.4 km
Apogee: 36,025.6 km
Inclination: 13.6 °
Period: 1,439.5 minutes
Semi major axis: 42230 km
RCS: 3.9952 m2 (large)
Launch date: February 15, 1990
Source: Commonwealth of Independent States (former USSR) (CIS)
Launch site: TYURATAM MISSILE AND SPACE COMPLEX (TTMTR)

Note: This is a ROCKET BODY
Your satellite tracking list
Your tracking list is empty




NASA's NSSDC Master Catalog

Two Line Element Set (TLE):
1 20502U 90016D   23154.34072497 -.00000299  00000-0  00000-0 0  9997
2 20502  13.5989 343.1971 0039335 209.4346 324.7017  1.00037607121669
Source of the keplerian elements: AFSPC